Location: Poughquag
(41.6090°N, 73.6820°W)
Time: 14:52:08
(UTC-04:00)

CUBESAT XI-V - Pass Details

Date: 15 April 2024
Orbit: 657 x 681 km, 98.2° (Epoch: 19 May)

Event Time Altitude Azimuth Distance (km) Brightness Sun altitude
Exits shadow 03:36:53 20° 319° (NW) 1,553 ? -26.4°
Drops below altitude 10° 03:38:32 10° 331° (NNW) 2,128 ? -26.2°
Sets 03:40:55 0° 339° (NNW) 3,044 ? -25.8°
